Location: Bittelbronn
(48.4454°N, 8.5870°E)
Time: 16:50:45
(UTC+00:00)

AQUA - Pass Details

Date: 23 May 2024
Orbit: 693 x 697 km, 98.3° (Epoch: 16 June)

Event Time Altitude Azimuth Distance (km) Brightness Sun altitude
Rises 01:57:40 0° 15° (NNE) 3,086 8.5 -12.7°
Reaches altitude 10° 01:59:56 10° 17° (NNE) 2,164 7.5 -12.5°
Maximum altitude 02:04:41 78° 104° (ESE) 716 3.9 -12.0°
Enters shadow 02:09:02 12° 190° (S) 2,006 5.6 -11.5°
